megabox.co.kr alexa rank chart, megabox.co.kr alexa rank daily changes

megabox.co.kr alexa rank chart, megabox.co.kr alexa rank daily changes

megabox.co.kr
Actual rank:
36 278

RANK HISTORY

Date Rank Diff
2017/07/25 36 278 -185
2017/07/24 36 463 -484
2017/07/23 36 947 +147
2017/07/22 36 800 -946
2017/07/21 37 746 -594
2017/07/20 38 340 -245
2017/07/19 38 585 +623
2017/07/18 37 962 -83
2017/07/17 38 045 -72
2017/07/16 38 117 -893
2017/07/15 39 010 -238
2017/07/14 39 248 -334
2017/07/13 39 582 +1 064
2017/07/12 38 518 +379
2017/07/11 38 139 +297
2017/07/10 37 842 -433
2017/07/09 38 275 +232
2017/07/08 38 043 +381
2017/07/07 37 662 +543
2017/07/06 37 119 +536
2017/07/05 36 583 +178
2017/07/04 36 405 -203
2017/07/03 36 608 +75
2017/07/02 36 533 +371
2017/07/01 36 162 -123
2017/06/30 36 285 +664
2017/06/29 35 621 +226
2017/06/28 35 395 -58
2017/06/27 35 453 +694
2017/06/26 34 759 +565
2017/06/25 34 194 +233
2017/06/24 33 961 +725
2017/06/23 33 236 -376
2017/06/22 33 612 +498
2017/06/21 33 114 +766
2017/06/20 32 348 -197
2017/06/19 32 545 -480
2017/06/18 33 025 +219
2017/06/17 32 806 -25
2017/06/16 32 831 +171
2017/06/15 32 660 +1 277
2017/06/14 31 383 +345
2017/06/13 31 038 -360
2017/06/12 31 398 -504
2017/06/11 31 902 +253
2017/06/10 31 649 +879
2017/06/09 30 770 +133
2017/06/08 30 637 +415
2017/06/07 30 222 +61
2017/06/06 30 161 +450
2017/06/05 29 711 +608
2017/06/04 29 103 +125
2017/06/03 28 978 -362
2017/06/02 29 340 -214
2017/06/01 29 554 +396
2017/05/31 29 158 +301
2017/05/30 28 857 +70
2017/05/29 28 787 -1
2017/05/28 28 788 +97
2017/05/27 28 691 -690
2017/05/26 29 381

WIDGET FOR YOUR SITE

DOMAINS WITH THE NEAREST RANK

Domain Rank
speedof.me 36 273
deltabit.co 36 274
scssoft.com 36 275
68216c38fb36e0.com 36 276
clicknupload.link 36 277
megabox.co.kr 36 278
newtalk.tw 36 279
denabank.com 36 280
joinhomebase.com 36 281
8kpin.com 36 282
zaba.hr 36 283

DOMAINS WITH THE NEAREST RANK BY TLD .co.kr

Domain Rank
godo.co.kr 35 159
2cpu.co.kr 35 374
i-scream.co.kr 35 607
hanacard.co.kr 35 728
kantukan.co.kr 35 978
megabox.co.kr 36 278
mule.co.kr 36 307
tvreport.co.kr 36 338
bigfile.co.kr 36 674
bananamall.co.kr 36 687
e-himart.co.kr 36 748